User: anonymous   Login
Location: Rodson Ranch
(38.7188°N, 119.3202°W)
Time: 22:39:21
(UTC+00:00)
Language:

Cosmos 1606 Rocket - Orbit

View from above orbital plane
View from above orbital plane
View from above satellite
View from above satellite

Ground track
Ground track

The orbit data is extracted from the following two-line orbital elements,

1 15370U 84111B   21017.64671173  .00000071  00000-0  56286-5 0  9997
2 15370  82.5149 218.8883 0022135  55.0179 305.3110 14.83741595937385
Epoch (UTC): 17 January 2021 15:31:15
Eccentricity: 0.0022135
inclination: 82.5149°
perigee height: 602 km
apogee height: 633 km
right ascension of ascending node: 218.8883°
argument of perigee: 55.0179°
revolutions per day: 14.83741595
mean anomaly at epoch: 305.3110°
orbit number at epoch: 93738

The dashed part of the orbit path shows where the satellite is in the earth's shadow,  

DLR